TimePDT,TemperatureF,Dew PointF,Humidity,Sea Level PressureIn,VisibilityMPH,Wind Direction,Wind SpeedMPH,Gust SpeedMPH,PrecipitationIn,Events,Conditions,WindDirDegrees,DateUTC
12:15 AM,35.6,33.8,93,30.50,10.0,Calm,Calm,-,N/A,,Clear,0,2013-03-10 08:15:00
12:35 AM,35.6,32.0,87,30.49,10.0,Calm,Calm,-,N/A,,Clear,0,2013-03-10 08:35:00
12:55 AM,35.6,33.8,93,30.50,10.0,WSW,3.5,-,N/A,,Clear,250,2013-03-10 08:55:00
1:15 AM,33.8,32.0,93,30.50,10.0,West,4.6,-,N/A,,Clear,280,2013-03-10 09:15:00
1:35 AM,33.8,32.0,93,30.50,10.0,WNW,4.6,-,N/A,,Clear,290,2013-03-10 09:35:00
1:55 AM,35.6,33.8,93,30.51,10.0,Calm,Calm,-,N/A,,Clear,0,2013-03-10 09:55:00
3:15 AM,33.8,30.2,87,30.50,10.0,SE,3.5,-,N/A,,Clear,130,2013-03-10 10:15:00
3:35 AM,33.8,32.0,93,30.50,10.0,Calm,Calm,-,N/A,,Clear,0,2013-03-10 10:35:00
3:55 AM,33.8,32.0,93,30.49,10.0,Calm,Calm,-,N/A,,Clear,0,2013-03-10 10:55:00
4:15 AM,33.8,32.0,93,30.49,10.0,NW,3.5,-,N/A,,Clear,310,2013-03-10 11:15:00
5:35 AM,33.8,30.2,87,30.51,10.0,Calm,Calm,-,N/A,,Clear,0,2013-03-10 12:35:00
5:55 AM,32.0,30.2,93,30.51,10.0,Calm,Calm,-,N/A,,Clear,0,2013-03-10 12:55:00
6:15 AM,33.8,32.0,93,30.51,10.0,Calm,Calm,-,N/A,,Clear,0,2013-03-10 13:15:00
6:35 AM,33.8,32.0,93,30.50,10.0,Calm,Calm,-,N/A,,Mostly Cloudy,0,2013-03-10 13:35:00
6:55 AM,33.8,33.8,100,30.50,10.0,Calm,Calm,-,N/A,,Mostly Cloudy,0,2013-03-10 13:55:00
7:15 AM,33.8,33.8,100,30.50,10.0,Calm,Calm,-,N/A,,Partly Cloudy,0,2013-03-10 14:15:00
7:35 AM,35.6,33.8,93,30.50,10.0,Calm,Calm,-,N/A,,Clear,0,2013-03-10 14:35:00
7:55 AM,33.8,32.0,93,30.50,10.0,Calm,Calm,-,N/A,,Clear,0,2013-03-10 14:55:00
8:15 AM,35.6,33.8,93,30.50,10.0,Calm,Calm,-,N/A,,Mostly Cloudy,0,2013-03-10 15:15:00
8:35 AM,35.6,35.6,100,30.51,10.0,Calm,Calm,-,N/A,,Overcast,0,2013-03-10 15:35:00
8:55 AM,35.6,33.8,93,30.50,10.0,Calm,Calm,-,N/A,,Overcast,0,2013-03-10 15:55:00
9:15 AM,37.4,35.6,93,30.50,10.0,Calm,Calm,-,N/A,,Mostly Cloudy,0,2013-03-10 16:15:00
9:35 AM,39.2,37.4,93,30.50,10.0,Calm,Calm,-,N/A,,Scattered Clouds,0,2013-03-10 16:35:00
9:55 AM,42.8,37.4,81,30.50,10.0,Calm,Calm,-,N/A,,Mostly Cloudy,0,2013-03-10 16:55:00
10:15 AM,42.8,37.4,81,30.50,10.0,Calm,Calm,-,N/A,,Overcast,0,2013-03-10 17:15:00
10:35 AM,44.6,39.2,81,30.50,10.0,Calm,Calm,-,N/A,,Overcast,0,2013-03-10 17:35:00
10:55 AM,46.4,39.2,76,30.49,10.0,Calm,Calm,-,N/A,,Overcast,0,2013-03-10 17:55:00
11:15 AM,46.4,39.2,76,30.49,10.0,Calm,Calm,-,N/A,,Overcast,0,2013-03-10 18:15:00
11:35 AM,46.4,41.0,81,30.49,10.0,South,4.6,-,N/A,,Overcast,170,2013-03-10 18:35:00
11:55 AM,50.0,39.2,66,30.48,10.0,SE,8.1,-,N/A,,Overcast,140,2013-03-10 18:55:00
12:15 PM,51.8,41.0,67,30.48,10.0,SE,5.8,-,N/A,,Overcast,140,2013-03-10 19:15:00
12:35 PM,50.0,39.2,66,30.48,10.0,ESE,3.5,-,N/A,,Overcast,120,2013-03-10 19:35:00
12:55 PM,51.8,39.2,62,30.47,10.0,SSE,3.5,-,N/A,,Overcast,160,2013-03-10 19:55:00
1:15 PM,53.6,41.0,62,30.46,10.0,SE,3.5,-,N/A,,Overcast,140,2013-03-10 20:15:00
1:35 PM,53.6,41.0,62,30.46,10.0,Calm,Calm,-,N/A,,Overcast,0,2013-03-10 20:35:00
1:55 PM,55.4,41.0,58,30.45,10.0,Calm,Calm,-,N/A,,Overcast,0,2013-03-10 20:55:00
2:15 PM,55.4,41.0,58,30.45,10.0,Calm,Calm,-,N/A,,Overcast,0,2013-03-10 21:15:00
2:35 PM,55.4,41.0,58,30.44,10.0,Calm,Calm,-,N/A,,Overcast,0,2013-03-10 21:35:00
2:55 PM,57.2,42.8,59,30.44,10.0,Calm,Calm,-,N/A,,Overcast,0,2013-03-10 21:55:00
3:15 PM,57.2,42.8,59,30.43,10.0,Calm,Calm,-,N/A,,Overcast,0,2013-03-10 22:15:00
3:35 PM,60.8,42.8,52,30.43,10.0,Calm,Calm,-,N/A,,Overcast,0,2013-03-10 22:35:00
3:55 PM,59.0,44.6,59,30.43,10.0,Calm,Calm,-,N/A,,Overcast,0,2013-03-10 22:55:00
4:15 PM,59.0,42.8,55,30.43,10.0,Calm,Calm,-,N/A,,Overcast,0,2013-03-10 23:15:00
4:35 PM,57.2,44.6,63,30.43,10.0,NNW,3.5,-,N/A,,Overcast,340,2013-03-10 23:35:00
4:55 PM,57.2,46.4,67,30.43,10.0,NW,5.8,-,N/A,,Overcast,320,2013-03-10 23:55:00
5:15 PM,57.2,46.4,67,30.43,10.0,NW,6.9,-,N/A,,Overcast,320,2013-03-11 00:15:00
5:35 PM,55.4,46.4,72,30.43,10.0,NW,6.9,-,N/A,,Overcast,320,2013-03-11 00:35:00
5:55 PM,53.6,46.4,77,30.42,10.0,NNW,8.1,-,N/A,,Overcast,330,2013-03-11 00:55:00
6:15 PM,53.6,46.4,77,30.43,10.0,NW,8.1,-,N/A,,Overcast,310,2013-03-11 01:15:00
6:35 PM,53.6,46.4,77,30.42,10.0,NW,8.1,-,N/A,,Overcast,320,2013-03-11 01:35:00
6:55 PM,53.6,46.4,77,30.42,10.0,NW,5.8,-,N/A,,Overcast,310,2013-03-11 01:55:00
7:15 PM,51.8,46.4,82,30.42,10.0,NNW,3.5,-,N/A,,Overcast,330,2013-03-11 02:15:00
7:35 PM,51.8,46.4,82,30.42,10.0,NW,6.9,-,N/A,,Overcast,310,2013-03-11 02:35:00
7:55 PM,51.8,46.4,82,30.43,10.0,WNW,4.6,-,N/A,,Overcast,300,2013-03-11 02:55:00
8:15 PM,51.8,46.4,82,30.42,10.0,WNW,5.8,-,N/A,,Overcast,300,2013-03-11 03:15:00
8:35 PM,51.8,46.4,82,30.42,10.0,WNW,6.9,-,N/A,,Overcast,290,2013-03-11 03:35:00
8:55 PM,51.8,46.4,82,30.43,10.0,WNW,6.9,-,N/A,,Overcast,300,2013-03-11 03:55:00
9:15 PM,51.8,46.4,82,30.43,10.0,WNW,6.9,-,N/A,,Overcast,300,2013-03-11 04:15:00
9:35 PM,51.8,46.4,82,30.43,10.0,WNW,6.9,-,N/A,,Overcast,300,2013-03-11 04:35:00
9:55 PM,50.0,46.4,87,30.42,10.0,WNW,6.9,-,N/A,,Overcast,290,2013-03-11 04:55:00
10:15 PM,50.0,46.4,87,30.42,10.0,West,4.6,-,N/A,,Overcast,280,2013-03-11 05:15:00
10:35 PM,50.0,46.4,87,30.43,10.0,WNW,5.8,-,N/A,,Overcast,300,2013-03-11 05:35:00
10:55 PM,50.0,46.4,87,30.43,10.0,West,5.8,-,N/A,,Overcast,280,2013-03-11 05:55:00
11:15 PM,50.0,46.4,87,30.43,10.0,WNW,6.9,-,N/A,,Overcast,300,2013-03-11 06:15:00
11:35 PM,50.0,46.4,87,30.43,10.0,WNW,5.8,-,N/A,,Overcast,300,2013-03-11 06:35:00
11:55 PM,50.0,46.4,87,30.44,10.0,NNW,4.6,-,N/A,,Overcast,330,2013-03-11 06:55:00
12:15 AM,50.0,46.4,87,30.43,10.0,Calm,Calm,-,N/A,,Overcast,0,2013-03-11 07:15:00
12:35 AM,50.0,46.4,87,30.43,10.0,Calm,Calm,-,N/A,,Overcast,0,2013-03-11 07:35:00
12:55 AM,50.0,46.4,87,30.43,10.0,Calm,Calm,-,N/A,,Overcast,0,2013-03-11 07:55:00